Location: Dillon
(41.1766°N, 107.0923°W)
Time: 17:06:02
(UTC+00:00)

SO-50 - Pass Details

Date: 06 July 2022
Orbit: 585 x 698 km, 64.6° (Epoch: 08 August)

Event Time Altitude Azimuth Distance (km) Brightness Sun altitude
Exits shadow 07:10:52 17° 272° (W) 1,638 ? -26.1°
Maximum altitude 07:13:19 26° 315° (NW) 1,315 ? -26.1°
Drops below altitude 10° 07:17:22 10° 12° (NNE) 2,130 ? -26.1°
Sets 07:20:05 0° 25° (NNE) 3,064 ? -26.1°
